Location: Unspecified
(0.0000°N, 0.0000°E)
Time: 09:23:50
(UTC+00:00)

ATLAS 5 CENTAUR DEB - Pass Details

Date: 25 February 2026
Orbit: 8295 x 34941 km, 19.8° (Epoch: 28 February)

Event Time Altitude Azimuth Distance (km) Brightness Sun altitude
Rises 16:24:21 0° 272° (W) 14,426 ? 26.8°
Reaches altitude 10° 16:33:45 10° 268° (W) 14,227 ? 24.5°
Maximum altitude 21:47:39 68° 216° (SW) 35,065 ? -52.8°
Enters shadow 01:31:44 63° 266° (W) 28,432 ? -68.5°
Exits shadow 02:18:01 64° 279° (W) 24,275 ? -57.6°
Drops below altitude 10° 04:41:20 10° 68° (ENE) 12,424 ? -22.6°
Sets 04:49:33 0° 73° (ENE) 13,247 ? -20.6°
